Weather History for Pompano Beach, FL

Change the Weather History Date:

Monday, January 14, 2013

  Actual Average Record
Temperature  
Mean Temperature 75 °F -  
Max Temperature 78 °F 76 °F 85 °F (1972)
Min Temperature 72 °F 55 °F 32 °F (1956)
Cooling Degree Days 10    
Growing Degree Days 25 (Base 50)    
Moisture  
Dew Point 63 °F    
Average Humidity 66    
Maximum Humidity 76    
Minimum Humidity 58    
Precipitation  
Precipitation 0.00 in - - ()
Sea Level Pressure  
Sea Level Pressure 30.16 in    
Wind  
Wind Speed 10 mph (SE)    
Max Wind Speed 15 mph    
Max Gust Speed -    
Visibility 10 miles    
Events      
Averages and records for this station are not official NWS values.
T = Trace of Precipitation, MM = Missing Value Source: NWS Daily Summary

Daily Weather History Graph

Daily Weather History Graph

Search for Another Location

Airport:

Trip Planner

Search our weather history database for the weather conditions in past years. The results will help you decide how hot, cold, wet, or windy it might be!

Date:

Astronomy

Jan. 14, 2013 Rise Set
Actual Time 7:09 AM EST 5:49 PM EST
Civil Twilight 6:44 AM EST 6:14 PM EST
Nautical Twilight 6:16 AM EST 6:43 PM EST
Astronomical Twilight 5:48 AM EST 7:10 PM EST
Moon 9:04 AM EST (1/14) 9:08 PM EST (1/14)
Length of Visible Light 11h 29m
Length of Day
10h 40m
Waxing Crescent, 11% of the Moon is Illuminated
Jan 14
Waxing Crescent
Jan 18
First Quarter
Jan 26
Full
Feb 3
Last Quarter
Feb 10
New

Hourly Weather History & Observations

Time (EST) Temp. Dew Point Humidity Pressure Visibility Wind Dir Wind Speed Gust Speed Precip Events Conditions
1:53 AM 73.0 °F 62.1 °F 68% 30.15 in 10.0 mi SE 10.4 mph - N/A   Partly Cloudy
2:53 AM 73.0 °F 60.1 °F 64% 30.15 in 10.0 mi SE 11.5 mph - N/A   Scattered Clouds
3:53 AM 73.0 °F 61.0 °F 66% 30.14 in 10.0 mi ESE 6.9 mph - N/A   Clear
4:53 AM 73.0 °F 61.0 °F 66% 30.14 in 10.0 mi SE 9.2 mph - N/A   Partly Cloudy
5:53 AM 73.0 °F 60.1 °F 64% 30.14 in 10.0 mi SE 11.5 mph - N/A   Clear
6:53 AM 72.0 °F 61.0 °F 68% 30.16 in 10.0 mi SE 6.9 mph - N/A   Mostly Cloudy
7:53 AM 73.9 °F 62.1 °F 66% 30.17 in 10.0 mi SE 10.4 mph - N/A   Mostly Cloudy
8:53 AM 75.9 °F 63.0 °F 64% 30.17 in 10.0 mi SE 13.8 mph - N/A   Scattered Clouds
9:53 AM 75.9 °F 64.0 °F 67% 30.19 in 10.0 mi SE 13.8 mph - N/A   Scattered Clouds
10:53 AM 78.1 °F 62.1 °F 58% 30.18 in 10.0 mi ESE 15.0 mph - N/A   Clear
11:53 AM 78.1 °F 62.1 °F 58% 30.17 in 10.0 mi SSE 12.7 mph - N/A   Scattered Clouds
12:53 PM 77.0 °F 63.0 °F 62% 30.15 in 10.0 mi SSE 8.1 mph - N/A   Scattered Clouds
1:53 PM 78.1 °F 63.0 °F 60% 30.14 in 10.0 mi SE 10.4 mph - N/A   Clear
2:53 PM 78.1 °F 63.0 °F 60% 30.14 in 10.0 mi ESE 10.4 mph - N/A   Scattered Clouds
3:53 PM 77.0 °F 64.0 °F 64% 30.15 in 10.0 mi SE 9.2 mph - N/A   Scattered Clouds
5:53 PM 75.0 °F 63.0 °F 66% 30.17 in 10.0 mi SE 9.2 mph - N/A   Partly Cloudy
6:53 PM 73.9 °F 64.0 °F 71% 30.18 in 10.0 mi East 8.1 mph - N/A   Partly Cloudy
7:53 PM 73.9 °F 64.9 °F 73% 30.18 in 10.0 mi East 6.9 mph - N/A   Scattered Clouds
8:53 PM 73.9 °F 64.0 °F 71% 30.17 in 10.0 mi ESE 6.9 mph - N/A   Partly Cloudy
9:53 PM 73.9 °F 66.0 °F 76% 30.17 in 10.0 mi East 10.4 mph - N/A   Scattered Clouds
10:53 PM 75.0 °F 64.9 °F 71% 30.16 in 10.0 mi ESE 10.4 mph - N/A   Partly Cloudy
11:53 PM 73.9 °F 66.0 °F 76% 30.15 in 10.0 mi ESE 8.1 mph - N/A   Mostly Cloudy